Regional Weather Roundup
Issued by NWS

Home | Current Version | Previous Version | Text Only | Print | Product List | Glossary On
Versions: 1 2 3 4 5 6 7 8 9 10 11 12 13 14 15 16 17 18 19 20 21 22 23 24 25 26 27
000
ASUS45 KBOU 271607
RWRCO

WEATHER ROUNDUP FOR COLORADO
NATIONAL WEATHER SERVICE DENVER/BOULDER CO
1000 AM MDT SAT AUG 27 2016

NOTE: "FAIR" INDICATES FEW OR NO CLOUDS BELOW 12000 FEET WITH NO
SIGNIFICANT WEATHER AND/OR OBSTRUCTIONS TO VISIBILITY.

COZ001>005-013-030-031-271700-
...NORTHWEST COLORADO...

CITY           SKY/WX    TMP DP  RH WIND       PRES   REMARKS
CRAIG          FAIR      62  42  47 NE7       30.25F
HAYDEN         FAIR      61  37  41 E7        30.27S
MEEKER         FAIR      59  43  55 CALM      30.26F
MOUNT WERNER   NOT AVBL
STEAMBOAT SPGS FAIR      56  40  53 CALM      30.28F
WALDEN         FAIR      59  32  36 SW10G16   30.33S
$$

COZ006>008-011-271700-
...WEST CENTRAL VALLEYS...

CITY           SKY/WX    TMP DP  RH WIND       PRES   REMARKS
GRAND JUNCTION FAIR      66  45  46 SE6       30.19S
MONTROSE       FAIR      63  45  51 CALM      30.25R
EAGLE          SUNNY     55  45  67 CALM      30.32F
RIFLE          FAIR      58  50  75 VRB3      30.25F
DELTA          NOT AVBL
NUCLA          CLOUDY   N/A N/A N/A CALM      30.27R
$$

COZ017>023-064>068-271700-
...SOUTHWEST COLORADO...

CITY           SKY/WX    TMP DP  RH WIND       PRES   REMARKS
DURANGO        FAIR      63  44  50 VRB5      30.28R
CORTEZ         PTSUNNY   63  52  67 VRB3      30.23R
PAGOSA SPRINGS FAIR      61  42  49 CALM      30.34S
TELLURIDE      PTSUNNY   55  42  62 CALM      30.41S
WOLF CREEK PAS FAIR      43  36  75 S10G16    30.58S
$$

COZ009-010-012-014-032>034-037-058>063-271700-
...CENTRAL COLORADO...

CITY           SKY/WX    TMP DP  RH WIND       PRES   REMARKS
ASPEN          FAIR      55  41  59 N6        30.33S
BUENA VISTA    FAIR      58  36  43 CALM      30.33S
COPPER MTN     PTSUNNY   46  32  57 NW8G20    30.55R
BERTHOUD PASS  FAIR      36  25  64 N13G25    30.56R
COTTONWOOD PAS FAIR      57  36  44 E5        30.43S
GUNNISON       FAIR      54  39  58 CALM      30.38S
KREMMLING      FAIR      52  39  62 CALM      30.35F
LEADVILLE      FAIR      54  32  43 NW13G20   30.41S
MONARCH PASS   FAIR      43  34  70 W14       30.65R
SALIDA         FAIR      60  40  47 CALM      30.38S
SUNLIGHT       FAIR      50  41  71 CALM      30.52S
WILKERSON PASS FAIR      46  30  53 NW8       30.53R
$$

COZ069>075-271700-
...SAN LUIS VALLEY/SANGRE DE CRISTO MOUNTAINS...

CITY           SKY/WX    TMP DP  RH WIND       PRES   REMARKS
ALAMOSA        FAIR      60  41  49 VRB3      30.33R
LA VETA PASS   NOT AVBL
SAGUACHE       FAIR      59  41  51 SE6       30.34S
$$

COZ035-036-038>040-271700-
...NORTHERN COLORADO FRONT RANGE...

CITY           SKY/WX    TMP DP  RH WIND       PRES   REMARKS
DENVER INTL AP FAIR      70  44  39 SW3       30.16R
DMNS CITY PARK   N/A     71  43  36 SW2       30.15R
AURORA         MOSUNNY   69  38  31 NW3       30.17R
FRONT RANGE AP MOSUNNY   70  45  40 W3        30.16S
ERIE MUNI ARPT FAIR      70  41  34 CALM      30.14S
BOULDER MUN AP FAIR      68  43  40 SE3       30.14S
CENTENNIAL     FAIR      70  34  26 CALM      30.18R
BROOMFIELD     MOSUNNY   68  39  34 VRB5      30.17R
FORT COLLINS   FAIR      64  52  63 S6        30.14R
LONGMONT       FAIR      70  49  46 E3        30.15S
$$

COZ041-046-047-076>085-087-088-271700-
...PIKES PEAK/PALMER DIVIDE AND SOUTHERN FOOTHILLS...

CITY           SKY/WX    TMP DP  RH WIND       PRES   REMARKS
COLO. SPRINGS  FAIR      74  36  25 N5        30.19S
A. F. ACADEMY  FAIR      71  34  25 NW8       30.20S
SCHRIEVER AFB  NOT AVBL
ELLICOTT       NOT AVBL
FALCON         FAIR      70  36  28 W7        30.24S
FORT CARSON    FAIR      71  47  42 NE5       30.16S
LIMON          FAIR      74  48  39 CALM      30.14S
MONUMENT HILL  FAIR      66  34  30 NW10G16   30.26R
TRINIDAD       FAIR      72  43  35 SW6       30.18R
$$

COZ042>045-048>051-090-091-271700-
...NORTHEAST COLORADO...

CITY           SKY/WX    TMP DP  RH WIND       PRES   REMARKS
GREELEY ARPT   FAIR      66  54  63 CALM      30.14S
AKRON          FAIR      66  52  60 VRB3      30.12S
BURLINGTON     FOG       59  56  89 NE6       30.12R VSB 1
WRAY           CLOUDY   N/A N/A N/A SE8       30.10F FOG
STERLING       CLOUDY    55  54  94 S3        30.09S FOG
HOLYOKE        CLOUDY    61  59  94 S6        30.10S FOG
FORT MORGAN    FAIR      68  51  54 W3        30.12S
$$

COZ086-089-092>099-271700-
...SOUTHEAST COLORADO...

CITY           SKY/WX    TMP DP  RH WIND       PRES   REMARKS
PUEBLO         FAIR      74  49  41 VRB5      30.11S
LA JUNTA       FAIR      70  55  59 W6        30.09S
LAMAR          FAIR      69  57  65 NW6       30.05S
SPRINGFIELD      N/A     75  54  47 NW6       30.08S
$$




USA.gov is the U.S. government's official web portal to all federal, state and local government web resources and services.